TimeEDT,TemperatureF,Dew PointF,Humidity,Sea Level PressureIn,VisibilityMPH,Wind Direction,Wind SpeedMPH,Gust SpeedMPH,PrecipitationIn,Events,Conditions,WindDirDegrees,DateUTC
12:53 AM,37.0,33.1,86,30.20,10.0,Calm,Calm,-,N/A,,Clear,0,2013-05-27 04:53:00
1:53 AM,37.0,34.0,89,30.21,10.0,Calm,Calm,-,N/A,,Clear,0,2013-05-27 05:53:00
2:53 AM,36.0,32.0,86,30.20,10.0,Calm,Calm,-,N/A,,Clear,0,2013-05-27 06:53:00
3:53 AM,35.1,30.9,85,30.21,9.0,Calm,Calm,-,N/A,,Clear,0,2013-05-27 07:53:00
4:53 AM,35.1,32.0,89,30.21,10.0,Calm,Calm,-,N/A,,Clear,0,2013-05-27 08:53:00
5:53 AM,34.0,30.9,89,30.22,10.0,Calm,Calm,-,N/A,,Clear,0,2013-05-27 09:53:00
6:53 AM,48.0,43.0,83,30.23,10.0,Calm,Calm,-,N/A,,Clear,0,2013-05-27 10:53:00
7:53 AM,59.0,39.0,48,30.23,10.0,West,13.8,-,N/A,,Clear,260,2013-05-27 11:53:00
8:53 AM,62.1,37.9,41,30.23,10.0,West,11.5,-,N/A,,Clear,270,2013-05-27 12:53:00
9:53 AM,66.0,37.0,34,30.22,10.0,West,15.0,21.9,N/A,,Clear,260,2013-05-27 13:53:00
10:53 AM,68.0,41.0,37,30.22,10.0,WSW,13.8,-,N/A,,Clear,240,2013-05-27 14:53:00
11:53 AM,71.1,36.0,28,30.21,10.0,West,9.2,24.2,N/A,,Clear,280,2013-05-27 15:53:00
12:14 PM,68.0,39.2,35,30.21,10.0,SW,10.4,18.4,N/A,,Clear,220,2013-05-27 16:14:00
12:53 PM,68.0,36.0,31,30.19,10.0,SW,16.1,25.3,N/A,,Clear,220,2013-05-27 16:53:00
1:53 PM,66.9,35.1,31,30.19,10.0,SW,18.4,31.1,N/A,,Clear,230,2013-05-27 17:53:00
2:53 PM,66.0,37.0,34,30.18,10.0,SW,19.6,26.5,N/A,,Clear,230,2013-05-27 18:53:00
3:53 PM,64.9,37.9,37,30.17,10.0,SSW,13.8,20.7,N/A,,Clear,210,2013-05-27 19:53:00
4:53 PM,64.9,39.0,39,30.17,10.0,SW,11.5,19.6,N/A,,Clear,230,2013-05-27 20:53:00
5:53 PM,64.0,42.1,45,30.17,10.0,WSW,15.0,23.0,N/A,,Clear,240,2013-05-27 21:53:00
6:53 PM,62.1,39.9,44,30.16,10.0,SW,12.7,19.6,N/A,,Clear,230,2013-05-27 22:53:00
7:53 PM,59.0,39.9,49,30.17,10.0,SW,5.8,-,N/A,,Clear,230,2013-05-27 23:53:00
8:53 PM,55.9,42.1,60,30.17,10.0,SW,3.5,-,N/A,,Clear,230,2013-05-28 00:53:00
9:53 PM,55.0,45.0,69,30.18,10.0,SW,4.6,-,N/A,,Clear,220,2013-05-28 01:53:00
10:53 PM,55.0,46.9,74,30.19,10.0,SW,4.6,-,N/A,,Clear,220,2013-05-28 02:53:00
11:53 PM,54.0,48.0,80,30.19,10.0,SW,3.5,-,N/A,,Clear,220,2013-05-28 03:53:00